�������l�o���
Date,Time,MP-1(��Sv/h),MP-2(��Sv/h),MP-3(��Sv/h),MP-4(��Sv/h),MP-5(��Sv/h),MP-6(��Sv/h),MP-7(��Sv/h),MP-8(��Sv/h),����,����(m/s),���J
2018/03/18,00:00,0.857,1.446,0.896,1.686,1.143,0.481,0.849,0.817,��쐼,3.1,��
2018/03/18,00:10,0.856,1.446,0.894,1.686,1.142,0.482,0.848,0.817,��쐼,3.1,��
2018/03/18,00:20,0.857,1.446,0.898,1.685,1.143,0.480,0.847,0.818,��,3.6,��
2018/03/18,00:30,0.856,1.446,0.896,1.687,1.144,0.480,0.848,0.818,��,4.2,��
2018/03/18,00:40,0.856,1.448,0.897,1.685,1.143,0.480,0.847,0.817,��,5.5,��
2018/03/18,00:50,0.856,1.445,0.897,1.686,1.145,0.479,0.848,0.817,��,5.4,��
2018/03/18,01:00,0.857,1.446,0.896,1.685,1.145,0.481,0.847,0.816,��,4.6,��
2018/03/18,01:10,0.856,1.448,0.894,1.683,1.140,0.481,0.849,0.817,��쓌,4.5,��
2018/03/18,01:20,0.856,1.445,0.896,1.687,1.141,0.480,0.849,0.817,��쓌,3.4,��
2018/03/18,01:30,0.858,1.446,0.896,1.687,1.145,0.481,0.850,0.817,��쓌,3.4,��
2018/03/18,01:40,0.856,1.444,0.896,1.687,1.143,0.479,0.849,0.818,��쓌,4.1,��
2018/03/18,01:50,0.856,1.445,0.895,1.687,1.143,0.480,0.847,0.818,��쓌,4.5,��
2018/03/18,02:00,0.857,1.447,0.894,1.686,1.141,0.481,0.849,0.818,��쓌,4.9,��
2018/03/18,02:10,0.855,1.445,0.895,1.686,1.142,0.479,0.849,0.816,��쓌,4.9,��
2018/03/18,02:20,0.856,1.444,0.896,1.688,1.143,0.479,0.846,0.817,��쓌,5.1,��
2018/03/18,02:30,0.856,1.442,0.895,1.684,1.142,0.481,0.848,0.817,��쓌,4.8,��
2018/03/18,02:40,0.856,1.443,0.894,1.687,1.142,0.481,0.848,0.818,��,4.6,��
2018/03/18,02:50,0.856,1.447,0.896,1.685,1.140,0.481,0.848,0.816,��쐼,5.0,��
2018/03/18,03:00,0.856,1.447,0.897,1.687,1.145,0.480,0.848,0.817,��쐼,4.9,��
2018/03/18,03:10,0.856,1.446,0.897,1.686,1.139,0.482,0.848,0.817,��쐼,4.2,��
2018/03/18,03:20,0.856,1.444,0.895,1.684,1.141,0.480,0.845,0.817,��쐼,4.4,��
2018/03/18,03:30,0.856,1.445,0.896,1.685,1.142,0.481,0.848,0.817,��쐼,3.9,��
2018/03/18,03:40,0.854,1.444,0.894,1.684,1.141,0.480,0.847,0.819,��쐼,3.9,��
2018/03/18,03:50,0.854,1.446,0.895,1.684,1.142,0.479,0.848,0.816,��쐼,4.0,��
2018/03/18,04:00,0.855,1.442,0.895,1.686,1.142,0.480,0.848,0.817,��쐼,5.0,��
2018/03/18,04:10,0.855,1.446,0.896,1.684,1.141,0.481,0.849,0.816,��쐼,4.6,��
2018/03/18,04:20,0.855,1.444,0.896,1.684,1.140,0.480,0.848,0.818,��,4.2,��
2018/03/18,04:30,0.855,1.446,0.895,1.683,1.142,0.480,0.849,0.816,��,4.4,��
2018/03/18,04:40,0.855,1.444,0.896,1.684,1.143,0.480,0.846,0.817,��,4.8,��
2018/03/18,04:50,0.856,1.443,0.892,1.685,1.141,0.481,0.849,0.816,��쐼,4.3,��
2018/03/18,05:00,0.856,1.446,0.894,1.682,1.142,0.479,0.849,0.817,��,4.5,��
2018/03/18,05:10,0.854,1.446,0.895,1.684,1.138,0.482,0.849,0.819,��쐼,4.0,��
2018/03/18,05:20,0.855,1.443,0.896,1.685,1.140,0.482,0.848,0.817,��쐼,3.8,��
2018/03/18,05:30,0.857,1.442,0.895,1.684,1.141,0.481,0.847,0.816,��쐼,3.7,��
2018/03/18,05:40,0.855,1.444,0.895,1.687,1.144,0.481,0.847,0.817,��쐼,4.2,��
2018/03/18,05:50,0.854,1.443,0.894,1.685,1.141,0.480,0.847,0.819,��쐼,4.3,��
2018/03/18,06:00,0.854,1.437,0.897,1.683,1.142,0.480,0.847,0.817,��쐼,3.9,��
2018/03/18,06:10,0.855,1.444,0.896,1.685,1.140,0.480,0.848,0.817,��쐼,3.8,��
2018/03/18,06:20,0.856,1.445,0.897,1.685,1.142,0.478,0.847,0.817,��,3.9,��
2018/03/18,06:30,0.855,1.447,0.895,1.685,1.142,0.481,0.848,0.818,��,4.6,��
2018/03/18,06:40,0.855,1.446,0.894,1.689,1.141,0.479,0.847,0.816,��,5.0,��
2018/03/18,06:50,0.857,1.445,0.895,1.688,1.140,0.481,0.849,0.817,��,5.6,��
2018/03/18,07:00,0.855,1.448,0.898,1.685,1.142,0.481,0.849,0.818,��,6.4,��
2018/03/18,07:10,0.856,1.444,0.896,1.689,1.142,0.480,0.848,0.817,��,6.0,��
2018/03/18,07:20,0.855,1.448,0.896,1.687,1.144,0.482,0.851,0.818,��,5.1,��
2018/03/18,07:30,0.858,1.451,0.897,1.686,1.143,0.481,0.850,0.820,��,4.6,��
2018/03/18,07:40,0.858,1.446,0.898,1.688,1.143,0.482,0.850,0.819,��,3.9,��
2018/03/18,07:50,0.858,1.449,0.898,1.688,1.142,0.482,0.852,0.821,��,4.0,��
2018/03/18,08:00,0.858,1.448,0.899,1.686,1.142,0.483,0.851,0.821,��,3.6,��
2018/03/18,08:10,0.860,1.448,0.900,1.688,1.144,0.484,0.852,0.817,��,3.6,��
2018/03/18,08:20,0.859,1.450,0.899,1.689,1.146,0.482,0.850,0.821,��쐼,2.2,��
2018/03/18,08:30,0.860,1.449,0.900,1.689,1.144,0.483,0.851,0.820,��쐼,2.3,��
2018/03/18,08:40,0.860,1.450,0.901,1.693,1.144,0.483,0.851,0.821,�쐼,2.6,��
2018/03/18,08:50,0.860,1.448,0.900,1.690,1.145,0.484,0.852,0.820,�쐼,4.5,��
2018/03/18,09:00,0.862,1.450,0.900,1.690,1.145,0.483,0.851,0.820,�쐼,4.6,��
2018/03/18,09:10,0.862,1.453,0.900,1.691,1.147,0.485,0.849,0.820,�쐼,5.6,��
2018/03/18,09:20,0.861,1.450,0.902,1.692,1.149,0.484,0.851,0.819,���쐼,4.1,��
2018/03/18,09:30,0.864,1.453,0.902,1.693,1.147,0.484,0.850,0.821,��,3.5,��
2018/03/18,09:40,0.862,1.449,0.903,1.689,1.149,0.484,0.851,0.821,��쐼,3.4,��
2018/03/18,09:50,0.862,1.452,0.902,1.691,1.147,0.484,0.854,0.819,�쐼,5.1,��
2018/03/18,10:00,0.864,1.452,0.902,1.691,1.149,0.484,0.852,0.821,�쐼,6.3,��
2018/03/18,10:10,0.866,1.452,0.902,1.690,1.147,0.484,0.852,0.819,��쐼,5.4,��
2018/03/18,10:20,0.864,1.451,0.903,1.691,1.151,0.484,0.850,0.818,��쐼,4.6,��
2018/03/18,10:30,0.864,1.449,0.904,1.689,1.149,0.485,0.851,0.818,��쓌,5.0,��
2018/03/18,10:40,0.866,1.450,0.904,1.694,1.150,0.484,0.851,0.818,��쓌,6.5,��
2018/03/18,10:50,0.864,1.450,0.908,1.693,1.149,0.483,0.853,0.818,��,5.8,��
2018/03/18,11:00,0.864,1.449,0.906,1.692,1.148,0.483,0.852,0.817,��쓌,10.2,��
2018/03/18,11:10,0.864,1.451,0.904,1.696,1.148,0.484,0.851,0.818,��쓌,9.9,��
2018/03/18,11:20,0.864,1.449,0.902,1.693,1.147,0.484,0.854,0.819,��쓌,10.8,��
2018/03/18,11:30,0.864,1.452,0.903,1.693,1.147,0.484,0.853,0.819,��쓌,10.3,��
2018/03/18,11:40,0.863,1.453,0.904,1.695,1.148,0.483,0.853,0.819,��쓌,13.5,��
2018/03/18,11:50,0.863,1.452,0.901,1.698,1.150,0.482,0.854,0.817,��쓌,14.1,��
2018/03/18,12:00,0.863,1.451,0.904,1.692,1.147,0.486,0.852,0.816,��쓌,12.2,��
2018/03/18,12:10,0.864,1.451,0.902,1.696,1.149,0.483,0.854,0.818,��,12.7,��
2018/03/18,12:20,0.863,1.454,0.900,1.696,1.150,0.484,0.855,0.821,��,10.9,��
2018/03/18,12:30,0.863,1.457,0.901,1.695,1.150,0.485,0.853,0.819,��,11.4,��
2018/03/18,12:40,0.865,1.453,0.900,1.695,1.149,0.485,0.853,0.819,��,11.8,��
2018/03/18,12:50,0.863,1.451,0.904,1.695,1.150,0.486,0.853,0.817,��쓌,12.1,��
2018/03/18,13:00,0.863,1.456,0.904,1.696,1.153,0.486,0.855,0.820,��쓌,15.5,��
2018/03/18,13:10,0.863,1.455,0.902,1.695,1.149,0.486,0.855,0.818,��쓌,15.2,��
2018/03/18,13:20,0.867,1.454,0.902,1.697,1.152,0.489,0.854,0.818,��쓌,14.7,��
2018/03/18,13:30,0.866,1.451,0.900,1.698,1.152,0.488,0.852,0.819,��쓌,13.5,��
2018/03/18,13:40,0.864,1.455,0.903,1.697,1.150,0.488,0.854,0.818,��쓌,13.8,��
2018/03/18,13:50,0.866,1.455,0.905,1.699,1.151,0.486,0.853,0.818,��쓌,15.5,��
2018/03/18,14:00,0.866,1.452,0.904,1.697,1.153,0.486,0.853,0.819,��쓌,15.8,��
2018/03/18,14:10,0.865,1.455,0.903,1.697,1.151,0.487,0.854,0.818,��쓌,13.9,��
2018/03/18,14:20,0.867,1.456,0.903,1.697,1.155,0.488,0.855,0.818,��쓌,12.8,��
2018/03/18,14:30,0.865,1.454,0.905,1.698,1.152,0.487,0.853,0.820,��쓌,13.5,��
2018/03/18,14:40,0.865,1.454,0.904,1.700,1.157,0.487,0.854,0.821,��쓌,13.0,��
2018/03/18,14:50,0.864,1.455,0.906,1.699,1.152,0.486,0.854,0.819,��쓌,13.8,��
2018/03/18,15:00,0.866,1.458,0.904,1.697,1.153,0.488,0.853,0.820,��쓌,14.4,��
2018/03/18,15:10,0.866,1.455,0.904,1.697,1.154,0.486,0.853,0.818,��쓌,15.5,��
2018/03/18,15:20,0.863,1.451,0.904,1.698,1.155,0.488,0.853,0.819,��,11.6,��
2018/03/18,15:30,0.868,1.458,0.904,1.698,1.154,0.487,0.854,0.820,��,12.1,��
2018/03/18,15:40,0.867,1.457,0.904,1.701,1.154,0.489,0.855,0.818,��쓌,12.4,��
2018/03/18,15:50,0.869,1.457,0.906,1.700,1.155,0.487,0.853,0.819,��쓌,10.5,��
2018/03/18,16:00,0.867,1.459,0.907,1.700,1.154,0.489,0.855,0.819,��쓌,13.3,��
2018/03/18,16:10,0.868,1.457,0.906,1.699,1.149,0.488,0.855,0.821,��쓌,13.1,��
2018/03/18,16:20,0.867,1.459,0.905,1.697,1.153,0.488,0.856,0.819,��,11.3,��
2018/03/18,16:30,0.866,1.456,0.905,1.697,1.154,0.487,0.855,0.821,��,9.3,��
2018/03/18,16:40,0.869,1.457,0.906,1.697,1.153,0.488,0.854,0.819,��,10.2,��
2018/03/18,16:50,0.868,1.459,0.905,1.699,1.153,0.488,0.854,0.821,��,10.0,��
2018/03/18,17:00,0.869,1.460,0.907,1.698,1.153,0.490,0.855,0.823,��,8.6,��
2018/03/18,17:10,0.868,1.461,0.905,1.702,1.154,0.489,0.853,0.824,��,8.4,��
2018/03/18,17:20,0.870,1.460,0.908,1.702,1.153,0.490,0.854,0.823,��,7.1,��
2018/03/18,17:30,0.869,1.460,0.907,1.699,1.155,0.488,0.854,0.821,��,8.4,��
2018/03/18,17:40,0.868,1.462,0.907,1.701,1.153,0.490,0.854,0.822,��,8.1,��
2018/03/18,17:50,0.868,1.458,0.908,1.701,1.154,0.490,0.855,0.823,��쐼,7.4,��
2018/03/18,18:00,0.871,1.458,0.908,1.699,1.154,0.489,0.856,0.824,��쐼,7.6,��
2018/03/18,18:10,0.870,1.460,0.909,1.699,1.155,0.489,0.857,0.823,��쐼,7.2,��
2018/03/18,18:20,0.867,1.459,0.908,1.699,1.157,0.487,0.856,0.823,��쐼,7.4,��
2018/03/18,18:30,0.870,1.458,0.910,1.697,1.155,0.488,0.855,0.822,��쐼,6.2,��
2018/03/18,18:40,0.868,1.459,0.906,1.699,1.158,0.489,0.857,0.823,��쐼,5.6,��
2018/03/18,18:50,0.870,1.460,0.908,1.699,1.157,0.490,0.854,0.824,��쐼,4.9,��
2018/03/18,19:00,0.868,1.457,0.906,1.697,1.158,0.488,0.856,0.822,��쐼,2.6,��
2018/03/18,19:10,0.868,1.458,0.905,1.697,1.155,0.489,0.854,0.821,��,3.3,��
2018/03/18,19:20,0.871,1.456,0.907,1.697,1.156,0.488,0.855,0.822,��,3.6,��
2018/03/18,19:30,0.867,1.458,0.907,1.699,1.156,0.489,0.855,0.822,��쐼,3.9,��
2018/03/18,19:40,0.869,1.456,0.907,1.698,1.155,0.488,0.856,0.821,��쐼,3.8,��
2018/03/18,19:50,0.869,1.458,0.906,1.697,1.151,0.488,0.856,0.821,��쐼,3.9,��
2018/03/18,20:00,0.869,1.459,0.907,1.697,1.155,0.489,0.855,0.820,��쐼,4.0,��
2018/03/18,20:10,0.868,1.459,0.907,1.698,1.154,0.487,0.856,0.821,��쐼,4.4,��
2018/03/18,20:20,0.869,1.458,0.906,1.696,1.156,0.487,0.857,0.820,��쐼,4.2,��
2018/03/18,20:30,0.868,1.458,0.907,1.697,1.156,0.487,0.856,0.821,��쐼,4.5,��
2018/03/18,20:40,0.870,1.456,0.906,1.696,1.154,0.488,0.857,0.822,��쐼,4.3,��
2018/03/18,20:50,0.868,1.457,0.906,1.695,1.154,0.487,0.856,0.823,��쐼,3.8,��
2018/03/18,21:00,0.869,1.458,0.908,1.699,1.154,0.487,0.856,0.820,��쐼,4.6,��
2018/03/18,21:10,0.868,1.458,0.906,1.697,1.156,0.488,0.856,0.820,��쐼,4.8,��
2018/03/18,21:20,0.868,1.458,0.907,1.695,1.155,0.488,0.856,0.821,��쐼,4.8,��
2018/03/18,21:30,0.867,1.458,0.906,1.697,1.157,0.488,0.855,0.822,��쐼,4.2,��
2018/03/18,21:40,0.868,1.458,0.906,1.698,1.152,0.487,0.856,0.821,��쐼,4.2,��
2018/03/18,21:50,0.870,1.457,0.905,1.699,1.157,0.487,0.854,0.822,��,4.5,��
2018/03/18,22:00,0.867,1.457,0.906,1.696,1.156,0.487,0.856,0.822,��,4.3,��
2018/03/18,22:10,0.867,1.456,0.905,1.701,1.156,0.486,0.856,0.822,��,4.7,��
2018/03/18,22:20,0.870,1.457,0.907,1.697,1.155,0.487,0.854,0.820,��,5.0,��
2018/03/18,22:30,0.869,1.457,0.907,1.695,1.155,0.487,0.856,0.823,��,5.2,��
2018/03/18,22:40,0.868,1.457,0.905,1.698,1.155,0.487,0.855,0.822,��,4.4,��
2018/03/18,22:50,0.870,1.458,0.907,1.697,1.155,0.488,0.854,0.821,��쐼,4.0,��
2018/03/18,23:00,0.866,1.455,0.906,1.697,1.155,0.487,0.855,0.823,��쐼,4.5,��
2018/03/18,23:10,0.865,1.458,0.906,1.695,1.155,0.487,0.855,0.822,�쐼,4.4,��
2018/03/18,23:20,0.869,1.456,0.907,1.696,1.155,0.488,0.854,0.822,��쐼,5.2,��
2018/03/18,23:30,0.868,1.457,0.909,1.697,1.153,0.489,0.855,0.823,��쐼,4.8,��
2018/03/18,23:40,0.869,1.456,0.907,1.698,1.156,0.489,0.857,0.820,��쐼,4.1,��
2018/03/18,23:50,0.869,1.456,0.905,1.697,1.155,0.488,0.855,0.820,��쐼,4.5,��
